Wind_Speed
10 7 3 3 4 5 2 2 2 6 4 3 3 4 6 2 3 4 0 25 21 33 32 30 28 26 25 25 25 26 26 26 25 25 25 24 23 22 20 20 17 17 17 18 18 19 20 21 21
6 4 3 2 5 4 4 4 4 2 4 4 4 3 5 3 2 2 8 24 21 34 34 32 29 28 26 25 24 24 24 24 24 23 23 22 22 22 21 20 19 18 19 18 17 18 19 20 20
4 3 3 4 3 3 2 3 4 3 2 3 2 3 2 1 2 6 2 26 19 35 34 32 30 28 26 25 24 24 23 23 23 23 22 21 21 21 21 21 21 20 19 19 18 18 18 17 17
1 5 4 4 1 3 3 4 2 4 1 3 3 4 1 2 1 4 8 25 19 34 34 32 31 28 27 26 25 24 24 23 23 22 22 21 20 20 20 21 20 21 20 19 18 18 16 15 15
4 3 4 3 3 4 4 5 4 3 1 1 2 2 0 2 2 6 13 22 21 33 33 32 30 29 27 26 26 25 24 23 22 22 21 21 20 19 19 19 19 19 19 18 18 17 16 15 13
4 3 5 1 3 5 6 4 3 1 1 3 4 3 2 1 5 9 14 17 21 32 32 30 30 29 28 27 26 25 24 23 22 21 20 20 19 18 18 18 18 18 18 17 15 15 14 12 11
6 4 4 2 3 5 3 9 4 2 4 4 8 5 3 2 5 11 12 14 20 28 29 29 29 28 28 28 27 26 25 23 22 20 20 19 18 18 17 17 16 16 16 16 14 13 12 10 8
5 4 3 3 2 4 4 7 2 5 2 3 5 2 3 3 10 12 12 14 18 25 28 28 28 29 29 29 29 28 26 24 23 21 20 19 18 18 17 16 15 14 14 14 14 13 10 8 6
4 4 1 4 5 4 1 7 5 3 2 4 2 2 3 11 17 16 14 15 18 23 26 27 27 27 29 31 31 30 28 27 25 22 20 19 19 18 17 15 14 13 13 12 11 11 10 7 5
4 4 10 6 4 4 5 1 2 5 4 2 2 2 5 19 22 19 15 19 23 27 29 29 27 26 25 29 31 32 30 29 27 25 23 22 19 18 17 16 15 14 13 12 11 9 8 6 6
4 6 5 4 5 3 6 9 2 4 2 5 5 2 5 8 12 15 19 24 33 30 30 31 29 28 28 27 31 32 31 31 29 27 26 23 21 20 19 17 16 15 14 13 12 11 9 7 6
1 5 4 3 4 4 4 6 9 6 7 6 7 3 6 9 10 16 19 27 27 28 31 33 32 31 31 31 32 33 33 33 32 31 28 28 25 23 22 21 19 18 17 16 15 13 11 9 8
3 3 3 3 8 6 4 8 8 9 9 10 10 6 9 10 14 22 27 29 29 29 32 35 35 35 34 33 34 33 33 34 33 32 31 30 29 28 27 25 23 22 20 19 17 15 13 12 11
1 4 7 6 6 5 6 6 6 8 4 9 6 7 8 10 15 14 19 29 32 34 35 35 37 38 36 34 35 36 34 33 30 28 33 33 31 32 30 29 27 25 22 19 17 16 15 14 13
4 6 7 5 4 8 8 8 7 12 8 8 5 6 4 8 15 18 30 30 39 40 34 36 38 39 39 37 36 35 35 33 31 30 31 34 35 34 33 31 28 26 22 21 19 17 14 13 14
3 3 3 4 3 3 7 9 8 4 5 9 8 7 8 10 6 15 18 27 32 34 38 34 37 40 41 40 36 35 32 32 29 31 32 34 36 36 34 31 30 26 24 23 22 20 19 16 15
4 4 4 8 6 1 5 7 6 0 7 10 10 8 7 9 11 12 9 10 20 32 34 34 35 39 41 39 37 35 33 31 27 28 30 32 33 34 33 31 30 26 26 25 24 23 21 20 20
5 4 4 6 2 2 3 10 10 8 6 11 12 9 9 9 15 16 18 16 18 25 32 39 36 37 35 33 32 31 30 29 28 30 32 32 31 32 32 32 30 28 27 27 26 27 24 23 22
3 4 5 4 4 3 6 7 19 13 7 12 15 11 9 12 6 13 19 20 14 25 30 39 37 37 34 33 30 29 30 30 29 30 30 30 29 30 31 32 32 31 31 32 30 27 25 14 22
8 11 9 6 10 3 11 12 11 11 10 12 15 12 10 7 7 7 12 11 10 16 24 27 30 32 32 30 28 20 25 24 27 27 27 27 27 29 29 31 33 34 33 32 31 30 21 17 26
8 10 6 7 6 5 7 9 6 8 5 9 8 8 8 8 7 4 6 6 4 6 15 22 25 25 27 26 26 19 16 15 21 24 26 27 26 25 27 28 31 33 32 35 36 35 31 21 29
10 9 11 5 3 5 2 7 6 6 10 6 9 7 9 2 3 1 5 5 7 8 11 16 18 20 24 23 23 23 14 11 14 20 26 27 25 25 27 27 28 30 32 33 36 33 32 29 25
7 6 9 4 4 3 2 5 5 2 5 13 9 8 5 5 6 3 3 5 6 9 13 15 16 17 18 20 19 22 19 15 14 17 17 21 21 20 21 23 26 27 27 30 33 33 31 34 27
6 3 2 3 3 6 9 9 6 6 8 4 5 5 7 8 6 4 1 3 7 10 13 15 16 15 14 15 16 18 21 19 16 14 14 15 15 15 18 18 20 22 24 26 27 28 29 31 31
6 7 2 2 2 9 11 10 13 5 5 8 9 8 8 8 7 6 5 3 6 10 11 13 14 14 13 12 11 12 14 14 13 13 13 14 15 16 16 15 18 18 19 20 22 23 25 28 25
12 10 6 8 5 5 1 7 6 14 11 6 8 8 9 9 7 7 7 6 7 9 10 12 13 13 11 10 10 10 9 9 10 10 11 13 15 16 16 15 16 16 17 17 18 19 20 24 25
7 12 5 4 1 2 5 7 7 7 9 3 6 8 12 9 9 9 7 10 9 9 9 11 14 13 12 11 8 6 5 5 6 7 8 10 11 13 15 16 17 17 17 17 17 19 19 21 22
7 6 3 1 4 6 4 7 9 3 9 7 8 9 8 7 8 7 6 9 8 7 7 8 9 9 10 10 7 6 5 3 4 5 5 7 10 11 12 14 15 16 15 16 17 18 17 18 19
6 13 4 5 5 5 4 11 7 13 12 10 8 6 8 8 7 7 6 9 8 7 7 7 7 8 7 6 5 3 3 2 2 4 6 8 8 11 12 14 16 16 16 17 18 17 16 16 15
10 9 18 4 6 6 13 22 3 3 7 8 10 8 4 6 6 6 3 8 8 9 9 9 8 8 7 7 6 5 3 0 2 5 7 8 10 11 12 15 16 19 19 19 19 17 17 16 15
Wind_Direction
322 326 321 35 50 65 339 315 253 310 2 304 88 137 142 50 138 164 119 168 169 172 172 171 171 166 161 153 148 144 141 141 141 143 144 143 140 136 131 127 125 121 121 121 122 123 124 123 121
330 353 38 77 78 61 295 263 309 254 336 117 55 40 43 40 63 97 121 175 172 175 174 174 174 172 168 161 155 151 147 146 145 145 144 144 141 137 134 130 125 122 120 116 116 120 122 123 125
335 24 74 86 102 138 204 233 285 285 303 259 96 62 79 33 19 174 196 176 173 178 177 176 177 177 173 168 163 160 156 153 150 149 149 148 145 142 139 136 132 128 126 123 120 121 123 123 124
348 15 36 78 238 255 223 283 257 293 125 65 142 60 27 352 316 234 167 178 174 180 181 181 180 180 179 175 171 168 164 161 159 156 155 154 153 149 145 140 138 134 134 134 131 128 128 128 127
52 55 47 52 272 267 258 267 262 199 114 24 47 165 333 39 186 178 164 178 182 181 184 186 185 185 183 182 178 176 173 170 167 164 162 160 158 154 150 145 143 141 141 143 143 141 141 142 141
40 95 59 267 269 275 288 253 266 357 70 156 80 100 258 161 166 162 166 178 187 184 186 188 188 191 189 188 186 182 181 180 176 172 168 166 164 161 156 153 151 149 148 149 150 146 146 148 152
113 83 187 218 268 308 305 327 50 28 345 18 146 134 273 223 189 164 172 182 187 189 188 190 189 193 195 194 192 189 188 188 185 181 177 174 171 169 166 163 160 158 155 156 154 151 149 151 153
106 91 134 264 241 269 329 353 349 58 351 342 155 172 256 229 174 170 173 182 187 192 194 194 193 194 196 197 197 195 192 193 192 189 187 183 180 178 175 173 170 168 165 165 164 158 156 160 165
127 66 181 246 171 247 346 29 310 287 39 339 339 177 271 160 162 165 170 182 190 197 200 199 197 197 198 198 198 199 197 195 196 195 194 191 189 185 184 184 180 179 178 177 177 170 163 173 181
92 123 215 209 206 256 312 28 317 330 355 299 222 107 123 157 168 171 185 192 198 203 203 205 203 199 198 201 200 200 199 197 197 198 199 200 197 196 195 193 192 190 191 189 186 186 184 187 198
165 197 210 259 239 328 308 321 271 256 273 222 239 209 151 178 187 191 201 202 208 207 206 208 208 202 200 199 202 201 201 200 200 202 202 204 202 203 203 203 201 201 199 197 195 194 201 206 201
223 248 192 275 72 13 300 302 312 225 220 250 256 188 170 192 206 207 211 214 217 210 212 212 212 208 205 204 203 202 202 204 203 204 205 206 204 205 209 212 209 209 209 209 206 206 205 212 211
197 277 265 290 310 257 281 248 244 266 256 259 271 267 242 220 217 218 219 224 223 218 215 216 214 212 209 207 207 204 203 206 205 207 208 211 209 211 211 211 215 217 216 217 216 210 213 215 219
289 276 279 275 235 240 224 269 141 270 259 266 273 277 252 238 228 226 223 227 225 227 223 218 217 216 212 209 208 211 210 209 207 208 213 214 215 217 218 218 220 215 219 222 227 230 225 218 220
317 328 326 241 238 228 168 286 220 257 302 279 301 296 295 221 240 228 231 227 230 230 229 222 220 218 215 214 212 212 211 210 209 210 215 218 218 221 223 224 221 228 219 226 225 233 236 230 221
332 47 335 288 161 243 148 263 250 230 333 301 298 304 312 306 228 224 234 235 236 227 229 228 222 220 218 217 215 215 214 214 210 213 216 222 222 225 226 227 229 231 231 228 229 227 227 226 224
5 247 240 316 234 199 184 264 260 338 333 292 290 283 293 302 305 306 299 263 236 230 221 227 224 222 218 216 217 217 218 219 217 215 219 226 226 228 231 233 235 235 235 234 232 229 227 223 218
200 223 240 249 308 135 246 265 284 303 301 277 282 279 282 280 268 299 297 280 248 229 219 226 226 220 216 211 213 217 223 226 225 226 229 230 230 231 233 236 239 237 237 237 234 233 228 226 215
127 212 255 259 280 9 251 279 284 289 264 268 269 266 271 260 286 289 288 288 264 229 219 215 214 214 206 201 196 208 214 222 227 231 234 235 236 237 238 240 242 241 239 241 240 235 225 201 198
249 262 266 285 273 199 281 265 260 272 257 244 264 277 253 275 294 294 313 307 276 240 215 207 203 206 201 199 195 202 209 221 227 228 233 237 238 240 243 245 246 247 244 243 241 236 214 196 198
225 229 243 241 325 269 286 283 238 258 250 274 264 250 272 271 273 270 331 339 42 107 183 194 194 196 195 195 195 197 203 212 218 226 228 232 236 238 242 247 250 250 247 246 242 238 224 187 196
237 207 242 246 106 249 142 288 274 277 268 267 276 282 275 271 145 133 358 18 45 61 136 171 180 183 187 195 198 199 199 197 220 228 232 234 236 240 242 246 250 251 252 248 249 238 225 207 192
220 173 191 200 176 280 161 292 273 243 245 256 262 260 283 171 164 122 17 36 61 87 119 140 153 167 179 193 202 209 213 220 231 235 241 237 236 237 240 244 250 251 249 252 250 246 236 220 208
162 85 93 82 144 262 184 196 185 178 212 226 238 233 197 161 147 122 344 86 92 103 120 136 144 152 172 189 198 212 224 230 233 235 236 236 238 249 256 257 261 257 256 252 250 247 239 227 217
158 114 277 304 182 246 194 219 250 285 221 213 236 213 193 164 151 167 202 166 134 127 130 131 138 142 158 171 186 209 226 234 236 243 245 241 244 251 255 256 266 261 261 259 253 246 235 227 211
187 170 176 201 207 270 209 237 243 220 232 251 241 206 159 160 165 183 189 169 166 145 139 143 143 136 144 158 176 192 202 214 230 242 248 252 253 254 256 255 261 258 261 258 252 245 238 234 227
196 210 178 341 133 307 219 277 273 230 238 198 202 170 169 169 171 183 179 187 171 160 153 144 143 141 146 151 160 172 193 204 220 234 246 254 254 254 255 258 253 254 252 246 237 229 219 216 220
160 169 95 138 241 238 248 261 232 224 227 223 208 187 171 159 163 175 187 192 184 155 141 139 140 146 147 146 153 168 175 210 229 237 247 264 277 266 262 261 253 248 239 231 221 216 215 215 215
176 230 195 162 171 195 285 261 212 203 206 201 199 182 170 171 177 184 173 172 163 130 115 110 109 108 100 93 104 81 52 10 310 287 278 279 276 278 274 260 244 231 217 215 215 210 205 202 202
199 201 202 172 218 233 243 264 144 227 233 173 167 166 118 92 66 41 102 122 134 126 129 134 130 127 133 133 118 107 101 350 303 303 299 293 281 272 266 255 239 227 220 213 202 200 197 203 207
Height
777 776 776 777 802 810 812 799 788 782 775 763 760 767 771 770 778 800 767 769 772 776 781 786 791 795 798 799 801 804 805 808 811 812 815 817 818 819 823 825 828 831 832 834 836 836 837 838 840
776 776 776 788 815 827 816 794 786 776 769 764 762 764 771 777 765 767 768 770 773 776 780 785 790 794 798 801 803 805 807 809 811 815 817 819 820 821 823 826 829 832 834 836 839 840 841 842 843
777 777 786 806 827 821 809 785 780 770 764 765 768 764 768 773 766 766 765 768 771 776 780 785 789 794 798 802 805 806 808 810 813 815 818 821 822 824 824 826 828 831 836 837 840 842 844 845 847
778 779 793 813 808 798 791 778 773 770 763 760 764 774 766 766 765 765 765 768 772 776 781 785 788 793 797 800 804 808 811 813 814 816 819 821 823 825 826 827 830 831 834 838 840 842 844 847 848
779 790 813 816 809 797 786 778 773 769 767 766 763 776 772 765 764 764 766 769 770 775 780 785 789 792 795 800 803 807 810 813 816 817 819 822 824 826 827 829 831 833 835 838 839 841 844 846 848
792 799 824 822 807 793 785 776 770 767 766 769 771 774 771 765 765 766 768 770 772 775 780 784 788 792 796 799 802 806 810 813 815 818 819 822 824 827 828 830 831 833 835 838 841 842 844 846 847
796 811 820 812 809 797 779 772 772 772 770 769 766 780 770 766 766 768 769 772 774 777 780 784 788 791 795 798 801 805 809 812 815 818 820 822 825 827 829 831 832 834 836 839 841 844 844 845 847
792 805 814 812 811 798 776 774 768 771 772 762 762 779 775 765 767 768 770 772 774 777 779 782 785 788 792 795 800 802 806 811 815 818 820 822 824 826 829 831 833 835 837 838 840 842 844 845 847
785 818 826 806 805 789 776 782 769 765 768 765 763 764 762 762 766 768 770 772 774 776 778 780 783 787 790 792 796 800 803 807 812 816 820 822 823 826 829 831 833 835 836 838 841 842 843 845 846
797 820 810 792 787 783 779 779 776 772 774 769 764 762 763 763 764 765 767 769 771 773 774 778 781 784 789 792 794 797 801 803 808 813 817 820 824 826 828 830 832 834 836 838 840 843 844 844 845
795 804 793 784 782 781 782 779 772 771 775 767 765 761 764 765 764 763 763 763 762 767 772 775 778 781 785 789 792 795 799 802 805 810 814 818 821 824 827 829 831 833 835 837 839 840 843 843 845
793 786 785 780 780 781 782 776 775 769 768 758 757 758 760 761 762 760 760 761 761 764 767 771 774 777 781 784 788 792 796 800 803 806 811 814 818 821 824 827 829 832 833 835 836 838 839 840 842
790 785 782 780 782 781 777 780 777 767 759 756 755 758 758 757 755 754 755 756 758 759 763 765 769 772 776 780 783 787 790 794 798 803 807 811 814 816 819 821 824 828 831 832 835 836 838 839 839
787 787 786 782 778 776 778 775 775 759 755 754 754 755 756 754 751 752 753 751 753 755 757 761 764 767 772 776 779 783 788 792 797 800 803 806 810 812 815 818 821 822 828 832 835 837 837 837 838
784 791 786 778 773 777 774 780 776 755 758 755 751 752 750 749 747 747 745 747 746 749 753 755 759 763 768 772 776 779 782 788 792 796 799 802 805 807 810 814 817 822 824 829 831 835 838 838 838
792 793 801 776 773 766 771 790 763 753 757 755 751 750 748 742 740 739 740 741 740 744 746 751 755 757 761 766 771 777 780 784 788 791 795 797 800 804 807 811 815 819 823 824 828 830 832 835 837
804 813 805 792 769 770 777 781 760 752 757 756 751 748 747 743 734 731 734 734 733 734 740 743 749 751 756 762 767 773 778 781 785 788 792 796 799 802 806 809 812 816 819 821 825 827 829 831 833
811 811 807 800 776 776 779 779 766 757 758 756 748 746 744 742 733 729 727 728 728 728 730 736 741 747 753 761 766 772 775 778 782 784 787 790 794 798 802 805 809 813 815 816 819 822 825 827 830
792 799 799 791 776 780 781 780 763 758 759 755 747 743 743 736 727 728 725 722 723 722 724 726 733 739 747 755 761 767 769 773 777 780 784 789 793 797 800 803 805 807 810 811 814 817 820 823 827
794 799 800 789 779 784 783 779 769 760 753 743 737 735 739 732 729 725 723 721 719 717 720 725 729 735 743 750 757 764 766 771 774 777 782 787 789 792 796 798 800 803 806 808 810 813 815 819 822
792 795 796 795 788 783 783 777 758 744 743 737 732 732 731 731 729 726 725 723 719 718 719 724 729 736 743 749 755 760 765 768 772 775 778 781 785 788 791 793 795 797 800 801 802 804 807 810 816
794 784 786 794 800 809 777 790 757 744 740 737 732 731 730 729 729 728 728 727 723 722 723 726 730 735 741 747 752 759 763 766 769 773 776 778 782 785 787 789 790 793 795 796 797 799 801 803 804
784 773 783 788 802 797 786 797 753 742 747 738 728 727 727 729 730 729 731 729 727 725 725 727 731 737 741 745 750 756 761 766 768 771 774 777 779 780 784 785 786 786 786 788 790 792 795 797 799
766 771 777 790 799 808 785 783 761 752 739 730 723 723 727 728 731 731 732 731 730 728 729 731 732 736 740 745 748 754 760 763 766 769 772 774 777 778 779 781 783 784 786 787 788 789 789 791 794
767 779 803 807 813 787 763 772 738 729 723 721 719 721 723 726 730 731 732 732 732 732 732 733 735 738 741 744 748 754 758 762 765 767 769 771 773 775 777 778 780 782 783 785 785 786 787 790 792
766 770 796 796 800 779 763 765 737 712 706 710 712 713 719 724 728 731 731 731 733 734 735 735 736 739 742 745 748 752 755 759 762 765 767 769 771 772 774 775 776 778 780 783 785 786 787 789 790
763 768 753 772 776 784 764 740 721 714 712 713 715 714 716 721 724 727 729 731 734 736 738 738 739 741 742 746 750 752 755 757 759 761 764 767 767 767 769 771 772 775 778 779 780 784 784 785 788
738 744 771 782 786 784 756 751 731 718 715 713 715 713 715 718 723 725 728 731 735 737 739 740 741 743 744 746 750 753 754 756 759 759 761 764 769 768 768 769 770 771 774 777 779 781 783 786 788
744 746 749 761 772 777 769 723 707 702 702 709 714 715 716 720 722 724 727 732 736 740 742 744 745 746 746 748 751 754 755 756 757 758 758 760 760 765 766 767 767 769 767 772 776 779 780 782 787
719 726 733 763 761 759 741 700 698 698 702 704 709 712 718 721 725 727 728 733 738 740 743 745 745 745 748 749 749 752 753 756 757 760 760 761 763 762 762 766 767 767 767 768 769 775 779 781 783